SWA1262 CYVR-KLAX

Flight info

Callsign SWA1262
Flight time 3h 14m
Altitude 33000
Route GRG8/26L SEA LMT LIN BURGL IRNMN2
Aircraft B738/M-VGDW/C

Departure

Time 2026-05-03 20:16
Airport Vancouver International Airport (CYVR)

Arrival

Time 2026-05-03 23:30
Airport Los Angeles International Airport (KLAX)
Time Latitude Longitude Altitude Speed Heading
2026-05-03 20:15 49.18488 -123.16209 20 ft 3 kts 278°
2026-05-03 20:15 49.18509 -123.16397 22 ft 48 kts 281°
2026-05-03 20:15 49.18611 -123.17265 20 ft 113 kts 279°
2026-05-03 20:15 49.18775 -123.18710 17 ft 161 kts 281°
2026-05-03 20:16 49.18995 -123.20573 179 ft 192 kts 281°
2026-05-03 20:16 49.19209 -123.22609 936 ft 195 kts 279°
2026-05-03 20:16 49.19407 -123.24768 1361 ft 212 kts 275°
2026-05-03 20:16 49.19351 -123.27035 1801 ft 212 kts 264°
2026-05-03 20:17 49.19164 -123.29225 2227 ft 204 kts 263°
2026-05-03 20:17 49.18973 -123.31334 2661 ft 197 kts 263°
2026-05-03 20:17 49.18734 -123.33326 3080 ft 191 kts 245°
2026-05-03 20:17 49.17774 -123.34672 3370 ft 202 kts 197°
2026-05-03 20:18 49.16335 -123.35153 3590 ft 223 kts 188°
2026-05-03 20:18 49.14721 -123.35447 3854 ft 244 kts 186°
2026-05-03 20:18 49.12964 -123.35724 4142 ft 264 kts 185°
2026-05-03 20:18 49.11069 -123.36018 4445 ft 280 kts 185°
2026-05-03 20:19 49.09119 -123.36324 4734 ft 283 kts 185°
2026-05-03 20:19 49.07149 -123.36640 4999 ft 286 kts 186°
2026-05-03 20:19 49.05166 -123.36959 5264 ft 287 kts 185°
2026-05-03 20:19 49.03174 -123.37237 5521 ft 288 kts 176°
2026-05-03 20:20 49.01288 -123.36354 5834 ft 287 kts 147°
2026-05-03 20:20 48.99648 -123.34611 6106 ft 288 kts 142°
2026-05-03 20:20 48.97909 -123.33082 6378 ft 290 kts 155°
2026-05-03 20:20 48.96059 -123.31840 6630 ft 291 kts 154°
2026-05-03 20:21 48.94213 -123.30564 6880 ft 292 kts 154°
2026-05-03 20:21 48.92359 -123.29288 7122 ft 293 kts 155°
2026-05-03 20:21 48.90493 -123.28018 7369 ft 294 kts 155°
2026-05-03 20:21 48.88620 -123.26746 7617 ft 295 kts 155°
2026-05-03 20:22 48.86742 -123.25467 7869 ft 296 kts 155°
2026-05-03 20:22 48.84855 -123.24182 8090 ft 299 kts 155°
2026-05-03 20:22 48.82953 -123.22893 8350 ft 299 kts 154°
2026-05-03 20:22 48.81076 -123.21617 8604 ft 300 kts 155°
2026-05-03 20:23 48.79166 -123.20318 8872 ft 301 kts 154°
2026-05-03 20:23 48.77262 -123.18989 9118 ft 300 kts 155°
2026-05-03 20:23 48.75329 -123.17713 9368 ft 304 kts 155°
2026-05-03 20:23 48.73390 -123.16422 9635 ft 304 kts 155°
2026-05-03 20:24 48.71449 -123.15100 9903 ft 307 kts 155°
2026-05-03 20:24 48.69500 -123.13772 10142 ft 308 kts 155°
2026-05-03 20:24 48.67538 -123.12449 10381 ft 309 kts 155°
2026-05-03 20:24 48.65567 -123.11124 10619 ft 311 kts 155°
2026-05-03 20:25 48.63583 -123.09786 10852 ft 313 kts 155°
2026-05-03 20:25 48.61592 -123.08445 11098 ft 314 kts 155°
2026-05-03 20:25 48.59591 -123.07098 11336 ft 316 kts 155°
2026-05-03 20:25 48.57575 -123.05743 11568 ft 319 kts 155°
2026-05-03 20:26 48.55505 -123.04350 11847 ft 333 kts 155°
2026-05-03 20:26 48.53344 -123.02896 12127 ft 347 kts 155°
2026-05-03 20:26 48.51094 -123.01396 12396 ft 360 kts 155°
2026-05-03 20:26 48.48768 -122.99840 12682 ft 371 kts 155°
2026-05-03 20:27 48.46373 -122.98234 12972 ft 382 kts 155°
2026-05-03 20:27 48.43905 -122.96583 13261 ft 393 kts 155°
2026-05-03 20:27 48.41384 -122.94902 13538 ft 399 kts 155°
2026-05-03 20:27 48.38879 -122.93234 13788 ft 400 kts 155°
2026-05-03 20:28 48.36321 -122.91529 14032 ft 403 kts 155°
2026-05-03 20:28 48.33710 -122.89790 14249 ft 410 kts 155°
2026-05-03 20:28 48.31101 -122.88056 14492 ft 420 kts 155°
2026-05-03 20:28 48.28401 -122.86264 14744 ft 428 kts 155°
2026-05-03 20:29 48.25663 -122.84449 14971 ft 432 kts 155°
2026-05-03 20:29 48.22907 -122.82624 15214 ft 434 kts 155°
2026-05-03 20:29 48.20130 -122.80786 15564 ft 436 kts 155°
2026-05-03 20:29 48.17348 -122.78948 15811 ft 438 kts 155°
2026-05-03 20:30 48.14556 -122.77106 16061 ft 439 kts 155°
2026-05-03 20:30 48.11746 -122.75254 16307 ft 443 kts 155°
2026-05-03 20:30 48.08913 -122.73389 16556 ft 445 kts 156°
2026-05-03 20:30 48.06081 -122.71527 16800 ft 446 kts 156°
2026-05-03 20:31 48.03230 -122.69654 17051 ft 448 kts 155°
2026-05-03 20:31 48.00376 -122.67780 17303 ft 449 kts 155°
2026-05-03 20:31 47.97533 -122.65920 17543 ft 441 kts 156°
2026-05-03 20:31 47.94725 -122.64083 17781 ft 442 kts 155°
2026-05-03 20:32 47.91907 -122.62239 18069 ft 442 kts 155°
2026-05-03 20:32 47.89093 -122.60401 18327 ft 443 kts 155°
2026-05-03 20:32 47.86267 -122.58559 18557 ft 443 kts 155°
2026-05-03 20:32 47.83437 -122.56717 18806 ft 445 kts 155°
2026-05-03 20:33 47.80628 -122.54889 19024 ft 445 kts 155°
2026-05-03 20:33 47.77775 -122.53035 19255 ft 448 kts 155°
2026-05-03 20:33 47.74916 -122.51181 19496 ft 448 kts 155°
2026-05-03 20:33 47.72054 -122.49324 19742 ft 450 kts 155°
2026-05-03 20:34 47.69184 -122.47467 19981 ft 449 kts 155°
2026-05-03 20:34 47.66307 -122.45607 20221 ft 452 kts 155°
2026-05-03 20:34 47.63422 -122.43743 20464 ft 453 kts 155°
2026-05-03 20:34 47.60528 -122.41876 20710 ft 454 kts 156°
2026-05-03 20:35 47.57626 -122.40008 20959 ft 456 kts 155°
2026-05-03 20:35 47.54711 -122.38131 21209 ft 457 kts 155°
2026-05-03 20:35 47.51790 -122.36254 21468 ft 459 kts 156°
2026-05-03 20:35 47.48852 -122.34368 21745 ft 460 kts 155°
2026-05-03 20:36 47.45906 -122.32481 22002 ft 462 kts 155°
2026-05-03 20:36 47.42844 -122.31036 22272 ft 465 kts 168°
2026-05-03 20:36 47.39622 -122.30459 22548 ft 468 kts 174°
2026-05-03 20:36 47.36373 -122.30075 22815 ft 469 kts 175°
2026-05-03 20:37 47.33115 -122.29717 23084 ft 471 kts 175°
2026-05-03 20:37 47.29837 -122.29324 23353 ft 472 kts 174°
2026-05-03 20:37 47.26556 -122.28910 23611 ft 473 kts 174°
2026-05-03 20:37 47.23304 -122.28513 23837 ft 475 kts 174°
2026-05-03 20:38 47.20001 -122.28127 24068 ft 477 kts 174°
2026-05-03 20:38 47.16689 -122.27736 24300 ft 478 kts 174°
2026-05-03 20:38 47.13366 -122.27333 24539 ft 479 kts 174°
2026-05-03 20:38 47.10037 -122.26931 24772 ft 481 kts 174°
2026-05-03 20:39 47.06702 -122.26535 25007 ft 481 kts 174°
2026-05-03 20:39 47.03372 -122.26142 25245 ft 480 kts 174°
2026-05-03 20:39 47.00043 -122.25744 25485 ft 480 kts 174°
2026-05-03 20:39 46.96713 -122.25346 25724 ft 480 kts 174°
2026-05-03 20:40 46.93391 -122.24952 25960 ft 479 kts 174°
2026-05-03 20:40 46.90070 -122.24559 26201 ft 478 kts 174°
2026-05-03 20:40 46.86791 -122.24170 26441 ft 477 kts 174°
2026-05-03 20:40 46.83481 -122.23778 26690 ft 477 kts 174°
2026-05-03 20:41 46.80176 -122.23388 26950 ft 475 kts 174°
2026-05-03 20:41 46.76877 -122.22998 27178 ft 474 kts 174°
2026-05-03 20:41 46.73588 -122.22610 27431 ft 474 kts 174°
2026-05-03 20:41 46.70307 -122.22224 27687 ft 473 kts 174°
2026-05-03 20:42 46.67021 -122.21837 27943 ft 473 kts 174°
2026-05-03 20:42 46.63742 -122.21452 28204 ft 472 kts 174°
2026-05-03 20:42 46.60468 -122.21068 28461 ft 472 kts 174°
2026-05-03 20:42 46.57188 -122.20684 28733 ft 470 kts 174°
2026-05-03 20:43 46.53929 -122.20302 28999 ft 469 kts 174°
2026-05-03 20:43 46.50714 -122.19926 29261 ft 469 kts 174°
2026-05-03 20:43 46.47466 -122.19547 29532 ft 468 kts 174°
2026-05-03 20:43 46.44214 -122.19168 29805 ft 467 kts 174°
2026-05-03 20:44 46.40965 -122.18789 30055 ft 467 kts 174°
2026-05-03 20:44 46.37727 -122.18412 30295 ft 466 kts 174°
2026-05-03 20:44 46.34492 -122.18037 30522 ft 466 kts 174°
2026-05-03 20:44 46.31259 -122.17662 30759 ft 465 kts 174°
2026-05-03 20:45 46.28031 -122.17287 30998 ft 465 kts 174°
2026-05-03 20:45 46.24805 -122.16913 31235 ft 465 kts 174°
2026-05-03 20:45 46.21620 -122.16545 31474 ft 465 kts 174°
2026-05-03 20:45 46.18390 -122.16172 31717 ft 464 kts 174°
2026-05-03 20:46 46.15171 -122.15801 31969 ft 463 kts 174°
2026-05-03 20:46 46.11958 -122.15431 32236 ft 461 kts 173°
2026-05-03 20:46 46.08760 -122.15062 32480 ft 461 kts 173°
2026-05-03 20:46 46.05557 -122.14693 32736 ft 460 kts 174°
2026-05-03 20:47 46.02356 -122.14326 32908 ft 462 kts 174°
2026-05-03 20:47 45.95986 -122.13597 32896 ft 460 kts 173°
2026-05-03 20:48 45.89616 -122.12866 32899 ft 458 kts 173°
2026-05-03 20:48 45.83267 -122.12143 32904 ft 457 kts 173°
2026-05-03 20:49 45.76915 -122.11419 32889 ft 457 kts 173°
2026-05-03 20:49 45.70613 -122.10703 32891 ft 457 kts 173°
2026-05-03 20:50 45.64278 -122.09985 32888 ft 455 kts 172°
2026-05-03 20:50 45.57953 -122.09273 32880 ft 456 kts 172°
2026-05-03 20:51 45.51611 -122.08552 32883 ft 456 kts 172°
2026-05-03 20:51 45.45315 -122.07846 32880 ft 456 kts 172°
2026-05-03 20:52 45.38975 -122.07133 32889 ft 456 kts 172°
2026-05-03 20:52 45.32649 -122.06424 32901 ft 456 kts 172°
2026-05-03 20:53 45.26327 -122.05716 32899 ft 456 kts 172°
2026-05-03 20:53 45.20008 -122.05013 32900 ft 454 kts 172°
2026-05-03 20:54 45.13741 -122.04314 32901 ft 454 kts 172°
2026-05-03 20:54 45.04264 -122.03262 32914 ft 454 kts 172°
2026-05-03 20:55 44.97968 -122.02565 32917 ft 452 kts 172°
2026-05-03 20:55 44.91687 -122.01870 32925 ft 453 kts 172°
2026-05-03 20:56 44.85408 -122.01179 32926 ft 452 kts 172°
2026-05-03 20:56 44.79167 -122.00493 32927 ft 451 kts 173°
2026-05-03 20:57 44.73281 -121.99846 32932 ft 450 kts 173°
2026-05-03 21:10 44.69930 -121.99478 32929 ft 452 kts 173°
2026-05-03 21:11 44.63662 -121.98793 32931 ft 452 kts 173°
2026-05-03 21:11 44.57383 -121.98109 32916 ft 450 kts 173°
2026-05-03 21:12 44.51181 -121.97434 32920 ft 450 kts 174°
2026-05-03 21:12 44.44939 -121.96754 32918 ft 450 kts 174°
2026-05-03 21:13 44.38700 -121.96078 32932 ft 450 kts 174°
2026-05-03 21:13 44.32456 -121.95400 32931 ft 450 kts 174°
2026-05-03 21:14 44.26205 -121.94725 32921 ft 450 kts 175°
2026-05-03 21:14 44.19962 -121.94053 32922 ft 450 kts 175°
2026-05-03 21:15 44.13753 -121.93385 32929 ft 450 kts 175°
2026-05-03 21:15 44.07503 -121.92715 32935 ft 450 kts 174°
2026-05-03 21:16 44.01254 -121.92043 32930 ft 451 kts 175°
2026-05-03 21:16 43.94989 -121.91377 32932 ft 450 kts 175°
2026-05-03 21:17 43.89806 -121.90822 32933 ft 449 kts 175°
2026-05-03 21:17 43.82478 -121.90043 32938 ft 458 kts 175°
2026-05-03 21:18 43.76468 -121.89405 32930 ft 465 kts 175°
2026-05-03 21:18 43.76117 -121.89367 32927 ft 465 kts 175°
2026-05-03 21:19 43.69690 -121.88686 32932 ft 468 kts 175°
2026-05-03 21:19 43.63262 -121.88009 32917 ft 460 kts 175°
2026-05-03 21:20 43.56902 -121.87335 32915 ft 457 kts 175°
2026-05-03 21:20 43.50560 -121.86668 32913 ft 455 kts 175°
2026-05-03 21:21 43.44235 -121.86003 32909 ft 455 kts 175°
2026-05-03 21:21 43.37946 -121.85344 32906 ft 456 kts 175°
2026-05-03 21:22 43.31618 -121.84681 32910 ft 455 kts 175°
2026-05-03 21:22 43.25297 -121.84023 32909 ft 455 kts 174°
2026-05-03 21:23 43.18984 -121.83362 32912 ft 455 kts 174°
2026-05-03 21:23 43.12668 -121.82706 32917 ft 455 kts 174°
2026-05-03 21:24 43.06352 -121.82052 32915 ft 455 kts 174°
2026-05-03 21:24 43.00037 -121.81399 32912 ft 455 kts 174°
2026-05-03 21:25 42.93752 -121.80749 32907 ft 455 kts 174°
2026-05-03 21:25 42.87425 -121.80098 32907 ft 454 kts 174°
2026-05-03 21:26 42.81151 -121.79450 32901 ft 455 kts 174°
2026-05-03 21:26 42.74842 -121.78803 32902 ft 454 kts 174°
2026-05-03 21:27 42.68529 -121.78155 32900 ft 455 kts 174°
2026-05-03 21:27 42.62221 -121.77511 32899 ft 454 kts 174°
2026-05-03 21:28 42.55907 -121.76866 32899 ft 455 kts 174°
2026-05-03 21:28 42.49586 -121.76222 32893 ft 455 kts 174°
2026-05-03 21:29 42.43263 -121.75579 32892 ft 455 kts 174°
2026-05-03 21:29 42.36984 -121.74942 32886 ft 455 kts 174°
2026-05-03 21:30 42.30669 -121.74302 32892 ft 454 kts 174°
2026-05-03 21:30 42.24384 -121.73668 32884 ft 452 kts 174°
2026-05-03 21:31 42.18101 -121.73035 32976 ft 452 kts 174°
2026-05-03 21:31 42.11857 -121.72105 32978 ft 452 kts 170°
2026-05-03 21:32 42.05629 -121.70926 32978 ft 452 kts 170°
2026-05-03 21:32 41.99393 -121.69760 32953 ft 452 kts 170°
2026-05-03 21:33 41.93210 -121.68596 32929 ft 451 kts 170°
2026-05-03 21:33 41.86987 -121.67434 32913 ft 451 kts 170°
2026-05-03 21:34 41.80771 -121.66271 32898 ft 451 kts 170°
2026-05-03 21:34 41.74550 -121.65112 32898 ft 450 kts 169°
2026-05-03 21:35 41.68354 -121.63959 32898 ft 448 kts 169°
2026-05-03 21:35 41.62180 -121.62812 32906 ft 448 kts 169°
2026-05-03 21:36 41.56000 -121.61667 32905 ft 448 kts 169°
2026-05-03 21:36 41.49870 -121.60533 32912 ft 447 kts 169°
2026-05-03 21:37 41.43703 -121.59394 32910 ft 447 kts 169°
2026-05-03 21:37 41.37532 -121.58257 32905 ft 447 kts 169°
2026-05-03 21:38 41.31364 -121.57123 32899 ft 448 kts 169°
2026-05-03 21:38 41.25195 -121.55990 32884 ft 448 kts 169°
2026-05-03 21:39 41.19049 -121.54864 32868 ft 448 kts 169°
2026-05-03 21:39 41.12881 -121.53736 32856 ft 447 kts 169°
2026-05-03 21:40 41.06704 -121.52608 32856 ft 447 kts 169°
2026-05-03 21:40 41.00567 -121.51491 32852 ft 443 kts 169°
2026-05-03 21:41 40.94477 -121.50383 32844 ft 441 kts 169°
2026-05-03 21:41 40.88394 -121.49278 32852 ft 441 kts 169°
2026-05-03 21:42 40.82353 -121.48184 32863 ft 441 kts 168°
2026-05-03 21:42 40.76272 -121.47084 32873 ft 440 kts 168°
2026-05-03 21:43 40.70197 -121.45988 32878 ft 440 kts 168°
2026-05-03 21:43 40.64110 -121.44891 32870 ft 441 kts 168°
2026-05-03 21:44 40.59068 -121.43984 32880 ft 440 kts 168°
2026-05-03 21:44 40.52994 -121.42893 32880 ft 440 kts 168°
2026-05-03 21:45 40.45935 -121.41628 32876 ft 441 kts 168°
2026-05-03 21:45 40.40829 -121.40714 32883 ft 442 kts 168°
2026-05-03 21:46 40.34740 -121.39627 32882 ft 442 kts 168°
2026-05-03 21:46 40.28681 -121.38547 32887 ft 442 kts 168°
2026-05-03 21:47 40.22764 -121.37494 32890 ft 442 kts 168°
2026-05-03 22:23 40.16946 -121.36460 32898 ft 444 kts 168°
2026-05-03 22:24 40.10846 -121.35380 32896 ft 441 kts 168°
2026-05-03 22:24 40.04739 -121.34297 32892 ft 443 kts 168°
2026-05-03 22:25 39.98605 -121.33215 32902 ft 443 kts 168°
2026-05-03 22:25 39.92490 -121.32135 32926 ft 445 kts 168°
2026-05-03 22:26 39.86334 -121.31052 32917 ft 447 kts 168°
2026-05-03 22:26 39.80218 -121.29978 32924 ft 446 kts 168°
2026-05-03 22:27 39.74057 -121.28896 32928 ft 447 kts 167°
2026-05-03 22:27 39.67900 -121.27818 32927 ft 447 kts 168°
2026-05-03 22:28 39.61742 -121.26743 32933 ft 446 kts 167°
2026-05-03 22:28 39.55582 -121.25666 32933 ft 447 kts 167°
2026-05-03 22:29 39.49375 -121.24586 32936 ft 450 kts 167°
2026-05-03 22:29 39.43235 -121.23525 32913 ft 442 kts 168°
2026-05-03 22:30 39.37149 -121.22460 32945 ft 441 kts 167°
2026-05-03 22:30 39.31005 -121.21398 32945 ft 447 kts 168°
2026-05-03 22:31 39.24829 -121.20330 32955 ft 449 kts 168°
2026-05-03 22:31 39.18626 -121.19259 32972 ft 450 kts 167°
2026-05-03 22:32 39.12461 -121.18197 32944 ft 449 kts 167°
2026-05-03 22:32 39.06275 -121.17133 32957 ft 449 kts 167°
2026-05-03 22:33 39.01118 -121.16247 32961 ft 450 kts 167°
2026-05-03 22:33 38.94924 -121.15187 32955 ft 447 kts 168°
2026-05-03 22:34 38.88763 -121.14132 32948 ft 445 kts 168°
2026-05-03 22:34 38.82624 -121.13083 32941 ft 445 kts 168°
2026-05-03 22:35 38.76509 -121.12041 32944 ft 442 kts 168°
2026-05-03 22:35 38.70411 -121.11001 32939 ft 441 kts 168°
2026-05-03 22:36 38.64315 -121.09966 32921 ft 441 kts 168°
2026-05-03 22:36 38.58276 -121.08942 32925 ft 439 kts 168°
2026-05-03 22:37 38.52218 -121.07915 32926 ft 438 kts 168°
2026-05-03 22:37 38.46161 -121.06891 32926 ft 438 kts 168°
2026-05-03 22:38 38.40115 -121.05870 32927 ft 438 kts 168°
2026-05-03 22:38 38.34061 -121.04850 32931 ft 438 kts 168°
2026-05-03 22:39 38.28002 -121.03830 32930 ft 439 kts 168°
2026-05-03 22:39 38.21950 -121.02814 32932 ft 438 kts 169°
2026-05-03 22:40 38.15934 -121.01805 32933 ft 438 kts 169°
2026-05-03 22:40 38.09881 -121.00792 32935 ft 438 kts 169°
2026-05-03 22:41 38.03977 -120.99057 32934 ft 436 kts 161°
2026-05-03 22:41 37.98146 -120.96806 32932 ft 438 kts 161°
2026-05-03 22:42 37.92307 -120.94575 32921 ft 438 kts 161°
2026-05-03 22:42 37.86481 -120.92341 32914 ft 437 kts 162°
2026-05-03 22:43 37.80625 -120.90107 32917 ft 440 kts 162°
2026-05-03 22:43 37.74766 -120.87870 32910 ft 440 kts 162°
2026-05-03 22:44 37.68902 -120.85638 32915 ft 440 kts 162°
2026-05-03 22:44 37.62998 -120.83395 32912 ft 444 kts 163°
2026-05-03 22:45 37.57118 -120.81163 32903 ft 444 kts 163°
2026-05-03 22:45 37.51198 -120.78920 32905 ft 444 kts 163°
2026-05-03 22:46 37.45240 -120.76667 32907 ft 448 kts 165°
2026-05-03 22:46 37.39266 -120.74410 32906 ft 448 kts 165°
2026-05-03 22:47 37.33295 -120.72159 32902 ft 448 kts 165°
2026-05-03 22:47 37.27308 -120.69906 32898 ft 450 kts 167°
2026-05-03 22:48 37.21312 -120.67653 32896 ft 450 kts 167°
2026-05-03 22:48 37.15346 -120.65415 32901 ft 451 kts 167°
2026-05-03 22:49 37.09327 -120.63161 32900 ft 452 kts 168°
2026-05-03 22:49 37.03299 -120.60907 32896 ft 452 kts 168°
2026-05-03 22:50 36.97264 -120.58654 32907 ft 452 kts 168°
2026-05-03 22:50 36.91240 -120.56409 32910 ft 452 kts 170°
2026-05-03 22:51 36.85246 -120.54180 32909 ft 451 kts 170°
2026-05-03 22:51 36.79224 -120.51943 32914 ft 451 kts 170°
2026-05-03 22:52 36.73201 -120.49707 32891 ft 450 kts 174°
2026-05-03 22:52 36.67190 -120.47486 32907 ft 451 kts 174°
2026-05-03 22:53 36.61162 -120.45258 32772 ft 456 kts 174°
2026-05-03 22:53 36.58087 -120.44130 32657 ft 463 kts 173°
2026-05-03 22:53 36.55005 -120.42987 32535 ft 461 kts 173°
2026-05-03 22:53 36.51930 -120.41846 32415 ft 460 kts 173°
2026-05-03 22:54 36.48866 -120.40720 32296 ft 459 kts 173°
2026-05-03 22:54 36.45801 -120.39599 32161 ft 458 kts 173°
2026-05-03 22:54 36.42732 -120.38474 32046 ft 460 kts 172°
2026-05-03 22:54 36.39673 -120.37343 31918 ft 458 kts 172°
2026-05-03 22:55 36.36615 -120.36218 31793 ft 458 kts 172°
2026-05-03 22:55 36.33569 -120.35101 31646 ft 455 kts 174°
2026-05-03 22:55 36.30576 -120.34008 31526 ft 453 kts 174°
2026-05-03 22:55 36.27559 -120.32904 31411 ft 452 kts 174°
2026-05-03 22:56 36.24542 -120.31800 31290 ft 451 kts 174°
2026-05-03 22:56 36.21528 -120.30698 31169 ft 451 kts 174°
2026-05-03 22:56 36.18516 -120.29598 31055 ft 450 kts 174°
2026-05-03 22:56 36.15517 -120.28504 30905 ft 449 kts 175°
2026-05-03 22:57 36.12522 -120.27411 30770 ft 446 kts 176°
2026-05-03 22:57 36.09547 -120.26325 30658 ft 445 kts 176°
2026-05-03 22:57 36.06583 -120.25247 30539 ft 444 kts 175°
2026-05-03 22:57 36.03621 -120.24171 30429 ft 443 kts 175°
2026-05-03 22:58 36.00669 -120.23098 30315 ft 442 kts 175°
2026-05-03 22:58 35.97727 -120.22028 30196 ft 441 kts 175°
2026-05-03 22:58 35.94785 -120.20959 30064 ft 439 kts 177°
2026-05-03 22:58 35.91900 -120.19914 29944 ft 437 kts 177°
2026-05-03 22:59 35.88980 -120.18858 29810 ft 436 kts 177°
2026-05-03 22:59 35.86075 -120.17805 29669 ft 435 kts 176°
2026-05-03 22:59 35.83173 -120.16753 29506 ft 433 kts 176°
2026-05-03 22:59 35.80283 -120.15710 29380 ft 432 kts 176°
2026-05-03 23:00 35.77397 -120.14668 29209 ft 431 kts 177°
2026-05-03 23:00 35.74525 -120.13629 29079 ft 429 kts 177°
2026-05-03 23:00 35.71658 -120.12596 28951 ft 428 kts 176°
2026-05-03 23:00 35.68804 -120.11561 28817 ft 429 kts 175°
2026-05-03 23:01 35.65982 -120.10171 28672 ft 442 kts 166°
2026-05-03 23:01 35.63277 -120.08272 28551 ft 451 kts 160°
2026-05-03 23:01 35.60644 -120.06272 28417 ft 450 kts 160°
2026-05-03 23:01 35.57981 -120.04260 28251 ft 448 kts 160°
2026-05-03 23:02 35.55314 -120.02258 28120 ft 450 kts 161°
2026-05-03 23:02 35.52642 -120.00249 28000 ft 448 kts 160°
2026-05-03 23:02 35.49990 -119.98248 27869 ft 447 kts 160°
2026-05-03 23:02 35.47346 -119.96258 27744 ft 446 kts 160°
2026-05-03 23:03 35.44699 -119.94273 27618 ft 444 kts 160°
2026-05-03 23:03 35.42059 -119.92292 27473 ft 443 kts 160°
2026-05-03 23:03 35.39471 -119.90347 27328 ft 441 kts 160°
2026-05-03 23:03 35.36854 -119.88388 27200 ft 441 kts 160°
2026-05-03 23:04 35.34234 -119.86428 27076 ft 440 kts 160°
2026-05-03 23:04 35.31620 -119.84471 26951 ft 440 kts 160°
2026-05-03 23:04 35.29017 -119.82499 26808 ft 442 kts 156°
2026-05-03 23:04 35.26531 -119.80228 26689 ft 446 kts 153°
2026-05-03 23:05 35.24073 -119.77914 26564 ft 445 kts 153°
2026-05-03 23:05 35.21619 -119.75620 26412 ft 444 kts 153°
2026-05-03 23:05 35.19157 -119.73330 26165 ft 444 kts 153°
2026-05-03 23:05 35.16708 -119.71052 25898 ft 439 kts 154°
2026-05-03 23:06 35.14299 -119.68767 25629 ft 435 kts 154°
2026-05-03 23:06 35.11895 -119.66530 25403 ft 434 kts 154°
2026-05-03 23:06 35.09468 -119.64332 25164 ft 434 kts 153°
2026-05-03 23:06 35.07074 -119.62082 24934 ft 434 kts 152°
2026-05-03 23:07 35.04695 -119.59832 24703 ft 431 kts 152°
2026-05-03 23:07 35.02315 -119.57621 24446 ft 429 kts 154°
2026-05-03 23:07 34.99928 -119.55429 24226 ft 428 kts 154°
2026-05-03 23:07 34.97557 -119.53234 23994 ft 428 kts 153°
2026-05-03 23:08 34.95201 -119.51036 23910 ft 426 kts 153°
2026-05-03 23:08 34.92845 -119.48849 23923 ft 426 kts 153°
2026-05-03 23:08 34.90475 -119.46667 23912 ft 427 kts 154°
2026-05-03 23:08 34.88090 -119.44528 23909 ft 425 kts 154°
2026-05-03 23:09 34.85691 -119.42413 23896 ft 425 kts 155°
2026-05-03 23:09 34.83302 -119.40285 23910 ft 427 kts 155°
2026-05-03 23:09 34.80913 -119.38132 23909 ft 427 kts 155°
2026-05-03 23:09 34.78523 -119.35987 23903 ft 427 kts 155°
2026-05-03 23:10 34.76125 -119.33854 23836 ft 429 kts 155°
2026-05-03 23:10 34.73763 -119.31752 23609 ft 422 kts 155°
2026-05-03 23:10 34.71411 -119.29684 23360 ft 413 kts 156°
2026-05-03 23:10 34.69080 -119.27668 23078 ft 409 kts 156°
2026-05-03 23:11 34.66772 -119.25665 22796 ft 406 kts 155°
2026-05-03 23:11 34.64489 -119.23665 22529 ft 404 kts 155°
2026-05-03 23:11 34.62208 -119.21685 22262 ft 401 kts 155°
2026-05-03 23:11 34.59934 -119.19737 22006 ft 399 kts 154°
2026-05-03 23:12 34.57670 -119.17792 21731 ft 397 kts 154°
2026-05-03 23:12 34.55427 -119.15855 21489 ft 395 kts 153°
2026-05-03 23:12 34.53213 -119.13890 21240 ft 394 kts 152°
2026-05-03 23:12 34.51014 -119.11915 20992 ft 392 kts 152°
2026-05-03 23:13 34.48818 -119.09968 20678 ft 391 kts 153°
2026-05-03 23:13 34.46625 -119.08042 20392 ft 388 kts 152°
2026-05-03 23:13 34.44475 -119.06146 20147 ft 386 kts 152°
2026-05-03 23:13 34.42306 -119.04238 19924 ft 384 kts 152°
2026-05-03 23:14 34.40137 -119.02368 19687 ft 381 kts 152°
2026-05-03 23:14 34.37980 -119.00516 19444 ft 379 kts 151°
2026-05-03 23:14 34.35839 -118.98661 19211 ft 377 kts 150°
2026-05-03 23:14 34.33720 -118.96786 18982 ft 376 kts 148°
2026-05-03 23:15 34.31640 -118.94875 18747 ft 374 kts 149°
2026-05-03 23:15 34.29555 -118.93015 18517 ft 372 kts 149°
2026-05-03 23:15 34.27475 -118.91147 18293 ft 371 kts 149°
2026-05-03 23:15 34.25408 -118.89277 18004 ft 370 kts 149°
2026-05-03 23:16 34.23349 -118.87401 17750 ft 371 kts 150°
2026-05-03 23:16 34.21307 -118.85503 17475 ft 368 kts 148°
2026-05-03 23:16 34.19290 -118.83621 17213 ft 365 kts 148°
2026-05-03 23:16 34.17274 -118.81775 16943 ft 363 kts 148°
2026-05-03 23:17 34.15976 -118.80503 16781 ft 363 kts 143°
2026-05-03 23:17 34.13490 -118.77800 16430 ft 361 kts 143°
2026-05-03 23:17 34.11630 -118.75774 16178 ft 360 kts 143°
2026-05-03 23:17 34.09775 -118.73757 15929 ft 358 kts 143°
2026-05-03 23:18 34.07924 -118.71748 15680 ft 357 kts 143°
2026-05-03 23:18 34.06702 -118.70423 15528 ft 355 kts 143°
2026-05-03 23:18 34.04866 -118.68432 15284 ft 354 kts 143°
2026-05-03 23:18 34.03234 -118.66210 14930 ft 359 kts 123°
2026-05-03 23:19 34.02433 -118.63363 14476 ft 356 kts 103°
2026-05-03 23:19 34.02202 -118.60431 13999 ft 346 kts 95°
2026-05-03 23:19 34.02129 -118.57571 13387 ft 338 kts 96°
2026-05-03 23:19 34.01945 -118.54757 12620 ft 336 kts 102°
2026-05-03 23:20 34.01623 -118.52018 11822 ft 322 kts 102°
2026-05-03 23:20 34.01340 -118.49390 11052 ft 311 kts 100°
2026-05-03 23:20 34.01118 -118.46832 10304 ft 302 kts 97°
2026-05-03 23:20 34.01229 -118.44341 9563 ft 295 kts 82°
2026-05-03 23:21 34.01636 -118.41952 8828 ft 280 kts 80°
2026-05-03 23:21 34.02047 -118.39772 8113 ft 255 kts 81°
2026-05-03 23:21 34.02397 -118.37723 7383 ft 242 kts 84°
2026-05-03 23:21 34.02707 -118.35783 6660 ft 234 kts 86°
2026-05-03 23:22 34.03097 -118.32096 5546 ft 215 kts 84°
2026-05-03 23:22 34.03290 -118.30222 5516 ft 228 kts 84°
2026-05-03 23:22 34.03469 -118.28324 5514 ft 228 kts 87°
2026-05-03 23:23 34.03627 -118.26421 5509 ft 229 kts 85°
2026-05-03 23:23 34.03888 -118.24486 5474 ft 231 kts 84°
2026-05-03 23:23 34.04148 -118.22618 5227 ft 228 kts 83°
2026-05-03 23:23 34.04407 -118.20736 4992 ft 227 kts 83°
2026-05-03 23:24 34.04655 -118.18858 4746 ft 224 kts 82°
2026-05-03 23:24 34.04738 -118.16999 4475 ft 223 kts 104°
2026-05-03 23:24 34.03904 -118.15486 4219 ft 216 kts 147°
2026-05-03 23:24 34.02506 -118.15087 3965 ft 209 kts 190°
2026-05-03 23:25 34.01284 -118.15936 3754 ft 206 kts 225°
2026-05-03 23:25 34.00367 -118.17243 3512 ft 201 kts 230°
2026-05-03 23:25 33.99535 -118.18523 3248 ft 187 kts 230°
2026-05-03 23:25 33.98753 -118.19723 2972 ft 177 kts 231°
2026-05-03 23:26 33.98045 -118.20908 2695 ft 172 kts 238°
2026-05-03 23:26 33.97509 -118.22175 2461 ft 167 kts 249°
2026-05-03 23:26 33.97193 -118.23452 2509 ft 155 kts 253°
2026-05-03 23:26 33.96968 -118.24716 2359 ft 156 kts 256°
2026-05-03 23:27 33.96780 -118.25993 2221 ft 153 kts 255°
2026-05-03 23:27 33.96574 -118.27242 2102 ft 152 kts 258°
2026-05-03 23:27 33.96418 -118.28495 1976 ft 152 kts 261°
2026-05-03 23:27 33.96293 -118.29763 1817 ft 153 kts 260°
2026-05-03 23:28 33.96173 -118.30983 1661 ft 140 kts 259°
2026-05-03 23:28 33.96057 -118.32156 1514 ft 143 kts 258°
2026-05-03 23:28 33.95935 -118.33343 1393 ft 142 kts 259°
2026-05-03 23:28 33.95803 -118.34555 1252 ft 147 kts 260°
2026-05-03 23:29 33.95683 -118.35754 1044 ft 143 kts 262°
2026-05-03 23:29 33.95558 -118.36928 813 ft 139 kts 262°
2026-05-03 23:29 33.95442 -118.38060 595 ft 135 kts 261°
2026-05-03 23:29 33.95321 -118.39153 389 ft 128 kts 262°
2026-05-03 23:30 33.95210 -118.40218 200 ft 134 kts 263°
2026-05-03 23:30 33.95102 -118.41282 127 ft 114 kts 263°
2026-05-03 23:30 33.95021 -118.42056 125 ft 72 kts 263°
2026-05-03 23:30 33.94970 -118.42530 124 ft 45 kts 263°
2026-05-03 23:31 33.94942 -118.42791 127 ft 24 kts 262°
2026-05-03 23:31 33.94928 -118.42939 127 ft 14 kts 264°
2026-05-03 23:31 33.94913 -118.43052 125 ft 16 kts 246°
2026-05-03 23:31 33.94784 -118.43087 124 ft 24 kts 173°
2026-05-03 23:32 33.94664 -118.43028 122 ft 14 kts 118°
2026-05-03 23:32 33.94620 -118.42921 124 ft 15 kts 102°
2026-05-03 23:32 33.94626 -118.42782 126 ft 19 kts 82°
2026-05-03 23:32 33.94645 -118.42609 127 ft 23 kts 83°
2026-05-03 23:33 33.94666 -118.42406 124 ft 26 kts 83°
2026-05-03 23:33 33.94689 -118.42174 122 ft 30 kts 83°
2026-05-03 23:33 33.94718 -118.41892 124 ft 39 kts 84°
2026-05-03 23:33 33.94758 -118.41509 126 ft 53 kts 80°
2026-05-03 23:34 33.94818 -118.41029 121 ft 63 kts 83°
2026-05-03 23:34 33.94824 -118.40501 124 ft 56 kts 103°
2026-05-03 23:34 33.94757 -118.40205 122 ft 11 kts 106°
2026-05-03 23:34 33.94755 -118.40198 122 ft 0 kts 106°
2026-05-03 23:35 33.94755 -118.40197 122 ft 0 kts 106°